{"data":{"norad_id":67727,"intl_designator":"2026-026G","name":"STARLINK-36741","alt_names":[],"object_type":"PAYLOAD","status":"ACTIVE","operator":null,"country":"US","launch_date":"2026-02-11","launch_site_code":"AFWTR","launch_vehicle":null,"mission":null,"orbit_class":"UNKNOWN","rcs_meters":null,"size_class":null,"mass_kg":null,"dimensions":null,"purposes":["comms"],"wikipedia_slug":null,"has_3d_model":false,"image_url":null,"decayed_at":null,"tle_current":{"epoch":"2026-09-19T22:44:58.534944Z","epoch_age_seconds":114175,"freshness":"FRESH","line1":"1 67727U 26026G   26262.94789971  .00009682  00000+0  30178-3 0  9993","line2":"2 67727  97.2856 314.7504 0000679 107.7481 252.3836 15.33450977 33898","mean_motion":15.33450977,"eccentricity":6.79e-5,"inclination_deg":97.2856,"raan_deg":314.7504,"arg_perigee_deg":107.7481,"mean_anomaly_deg":252.3836,"bstar":0.00030178,"rev_number":3389,"period_min":93.905838634449,"perigee_km":465.06070651271,"apogee_km":465.99007586543,"semimajor_km":6843.6623911891,"source":"CELESTRAK","updated_at":"2026-09-20T09:00:43.657494Z"}}}